[[{"header":{"parameterUnit":"m.s-1","parameterCategory":1,"la1":30.2991,"la2":30.254,"lo1":-89.0895,"lo2":-89.0444,"dy":0.0017,"dx":0.0017,"nx":28,"ny":28,"refTime":"2023-08-23T21:00:00:Z","depth":0,"parameterNumber":2,"parameterNumberName":"U-component_of_WINDS"},"data":[0,0,0,0,0,0,0,0,0,0,0,0,0,0,0,0,0,0,0,0,0,0,0,0,0,0,0,0,0,0,0,0,0,0,0,0,0,0,0,0,0,0,0,0,0,0,0,0,0,0,0,0,0,0,0,0,0,0,-2.1869,-2.1869,0,-2.1936,-2.1937,-2.1937,-2.1922,-2.1921,-2.192,-2.1919,-2.199,-2.1993,-2.1996,0,0,0,0,0,0,0,0,0,0,0,0,0,-2.1731,-2.1734,-2.1869,-2.1869,-2.187,-2.1936,-2.1937,-2.1938,-2.1923,-2.1921,-2.192,-2.1918,-2.1989,-2.1993,-2.1997,0,0,0,0,0,0,0,0,0,0,0,0,0,-2.1794,-2.1734,-2.1868,-2.1871,-2.1871,-2.1936,-2.1937,-2.1938,-2.1923,-2.1921,-2.1919,-2.1917,-2.1988,-2.1993,-2.1997,-2.2064,0,0,-2.2011,-2.2013,0,0,0,0,0,0,0,0,-2.179,-2.1799,-2.1869,-2.1871,-2.1872,-2.1919,-2.1914,-2.198,-2.1923,-2.1904,-2.1919,-2.1916,-2.1968,-2.1974,-2.1991,-2.2067,-2.207,-2.2012,-2.2015,-2.2017,-2.2018,0,0,0,0,0,0,0,-2.1786,-2.1796,-2.1895,-2.1871,-2.1872,-2.1869,-2.1876,-2.1927,-2.1946,-2.1905,-2.1904,-2.1912,-2.1968,-2.1987,-2.1993,-2.2072,-2.2012,-2.2016,-2.2019,-2.202,-2.2208,-2.221,0,0,0,0,0,0,-2.178,-2.1792,-2.1893,-2.1897,-2.1825,-2.1874,-2.1881,-2.1906,-2.1945,-2.1949,-2.1914,-2.1911,-2.198,-2.1987,-2.1995,-2.2077,-2.2017,-2.2021,-2.2024,-2.2206,-2.2208,-2.2211,0,0,0,0,0,0,-2.1777,-2.1789,-2.189,-2.1845,-2.1857,-2.1878,-2.1906,-2.1908,-2.1926,-2.1952,-2.1955,-2.1929,-2.1979,-2.1989,-2.2047,-2.2079,-2.2023,-2.2027,-2.2203,-2.2206,-2.2209,-2.2241,0,0,0,0,0,0,-2.1773,-2.1788,-2.1813,-2.1845,-2.186,-2.194,-2.1907,-2.1911,-2.1934,-2.1931,-2.1967,-2.1971,-2.1978,-2.204,-2.2052,-2.2085,-2.2031,-2.22,-2.2204,-2.2208,-2.2237,-2.2245,-2.2251,0,0,0,0,0,-2.1768,-2.182,-2.1814,-2.1827,-2.1891,-2.1942,-2.1951,-2.1957,-2.1937,-2.1962,-2.1979,-2.197,-2.2074,-2.2046,-2.2059,-2.2094,-2.2198,-2.2203,-2.2208,-2.2234,-2.2243,-2.2251,0,0,0,0,0,0,-2.1791,-2.1824,-2.1818,-2.1881,-2.1909,-2.1939,-2.1972,-2.1966,-2.2001,-2.1997,-2.2005,-2.2013,-2.2073,-2.2089,-2.2058,-2.2162,-2.2133,-2.2141,-2.2149,-2.2158,-2.2165,-2.216,-2.2035,0,0,0,0,0,-2.1803,-2.1841,-2.1868,-2.1921,-2.1935,-2.1951,-2.1974,-2.1976,-2.2006,-2.2018,-2.2038,-2.2068,-2.2108,-2.2134,-2.2171,-2.2239,-2.2248,-2.227,-2.2277,-2.2283,-2.229,-2.2328,-2.2339,-2.2227,-2.2227,-2.2227,0,0,-2.1829,-2.1852,-2.1875,-2.1926,-2.1948,-2.1988,-2.1961,-2.2004,-2.2035,-2.2024,-2.2081,-2.2097,-2.2131,-2.2195,-2.2224,-2.2211,-2.2322,-2.2289,-2.2294,-2.2297,-2.2334,-2.2345,-2.2354,-2.223,-2.2229,-2.2229,0,0,-2.1897,-2.1917,-2.1964,-2.1986,-2.2019,-2.203,-2.2041,-2.2073,-2.2083,-2.214,-2.2133,-2.217,-2.2238,-2.2263,-2.2284,-2.2363,-2.2356,-2.2375,-2.2413,-2.245,-2.2459,-2.2467,-2.2496,-2.2506,-2.2381,-2.2381,-2.2382,0,-2.1925,-2.1984,-2.1989,-2.2033,-2.2056,-2.2048,-2.2096,-2.2118,-2.2163,-2.2179,-2.2163,-2.2249,-2.2271,-2.2341,-2.2361,-2.2378,-2.2392,-2.2371,-2.2457,-2.2465,-2.2472,-2.25,-2.2511,-2.2384,-2.2383,-2.2383,-2.2383,0,-2.2018,-2.2059,-2.2093,-2.2135,-2.2162,-2.2208,-2.2221,-2.2249,-2.2249,-2.2262,-2.232,-2.2347,-2.239,-2.2407,-2.2408,-2.2478,-2.2469,-2.2455,-2.2427,-2.2485,-2.2511,-2.2522,-2.2387,-2.2386,-2.2385,-2.2385,0,0,-2.2102,-2.2146,-2.2159,-2.2178,-2.2214,-2.2247,-2.2294,-2.2335,-2.2359,-2.239,-2.243,-2.2488,-2.2476,-2.25,-2.2504,-2.2537,-2.2599,-2.252,-2.2521,-2.2534,-2.2679,-2.269,-2.2702,-2.2595,-2.2597,-2.2598,-2.2677,0,-2.2173,-2.2254,-2.226,-2.2333,-2.2372,-2.2365,-2.2406,-2.2434,-2.2447,-2.2483,-2.2498,-2.254,-2.252,-2.2535,-2.2567,-2.2585,-2.2628,-2.2579,-2.2633,-2.2635,-2.2625,-2.2715,-2.2726,-2.2799,-2.2687,-2.2688,-2.269,0,-2.2267,-2.2301,-2.2378,-2.2409,-2.2426,-2.2462,-2.2502,-2.2536,-2.2568,-2.2575,-2.2603,-2.2603,-2.2652,-2.2622,-2.269,-2.2657,-2.268,-2.2692,-2.2695,-2.2701,-2.2666,-2.2724,-2.2822,-2.2833,-2.2706,-2.2704,-2.2703,0,-2.2322,-2.2386,-2.2441,-2.2457,-2.2496,-2.2522,-2.2539,-2.2569,-2.2594,-2.2629,-2.2645,-2.2686,-2.2708,-2.274,-2.2752,-2.2728,-2.2821,-2.2791,-2.2829,-2.2829,-2.2849,-2.2848,-2.2953,-2.2863,-2.2863,-2.2863,-2.2862,0,-2.2402,-2.2449,-2.2466,-2.2499,-2.2553,-2.256,-2.2613,-2.263,-2.2656,-2.2694,-2.2691,-2.2727,-2.2739,-2.2777,-2.2787,-2.2843,-2.2853,-2.2862,-2.2864,-2.2862,-2.2861,-2.2878,-2.2873,-2.2866,-2.2865,-2.2864,-2.2864,0,-2.2472,-2.2484,-2.2544,-2.2575,-2.2584,-2.2622,-2.265,-2.2683,-2.2696,-2.2744,-2.2756,-2.2776,-2.2821,-2.2836,-2.289,-2.2897,-2.2963,-2.296,-2.2952,-2.2952,-2.299,-2.2987,-2.311,-2.3127,-2.3025,-2.3026,-2.3027,0,-2.2522,-2.2559,-2.2594,-2.2618,-2.2636,-2.2676,-2.2701,-2.271,-2.2737,-2.2777,-2.2806,-2.285,-2.2886,-2.2959,-2.2979,-2.3022,-2.302,-2.3061,-2.3027,-2.3025,-2.3022,-2.302,-2.3024,-2.3067,-2.3068,-2.3069,-2.307,0,-2.2611,-2.2615,-2.2651,-2.269,-2.2721,-2.2752,-2.2782,-2.2803,-2.2817,-2.2847,-2.2893,-2.2921,-2.2976,-2.3021,-2.3064,-2.3083,-2.308,-2.308,-2.3091,-2.3091,-2.3085,-2.309,-2.297,-2.3077,-2.3077,-2.3076,-2.3076,-2.3075,-2.2673,-2.2706,-2.2736,-2.2776,-2.28,-2.2828,-2.2861,-2.2878,-2.2916,-2.2961,-2.2964,-2.3014,-2.3046,-2.3104,-2.3125,-2.3165,-2.3154,-2.317,-2.3174,-2.3178,-2.3182,-2.3078,-2.3173,-2.3173,-2.3173,-2.3172,-2.3172,0,-2.2763,-2.2782,-2.2819,-2.2861,-2.2894,-2.2886,-2.2919,-2.2947,-2.2991,-2.302,-2.3056,-2.3109,-2.3152,-2.3177,-2.322,-2.3248,-2.3247,-2.3259,-2.3258,-2.3263,-2.3189,-2.3175,-2.3259,-2.3259,-2.3259,-2.3259,-2.3259,-2.3259,-2.2813,-2.2868,-2.2876,-2.2943,-2.2962,-2.3009,-2.3029,-2.3056,-2.308,-2.3139,-2.3175,-2.319,-2.3218,-2.3264,-2.3304,-2.331,-2.3327,-2.334,-2.3345,-2.3276,-2.3267,-2.3259,-2.3246,-2.3344,-2.3344,-2.3416,-2.3417,-2.3417]},{"header":{"parameterUnit":"m.s-1","parameterCategory":1,"la1":30.2991,"la2":30.254,"lo1":-89.0895,"lo2":-89.0444,"dy":0.0017,"dx":0.0017,"nx":28,"ny":28,"refTime":"2023-08-23T21:00:00:Z","depth":0,"parameterNumber":3,"parameterNumberName":"V-component_of_WINDS"},"data":[0,0,0,0,0,0,0,0,0,0,0,0,0,0,0,0,0,0,0,0,0,0,0,0,0,0,0,0,0,0,0,0,0,0,0,0,0,0,0,0,0,0,0,0,0,0,0,0,0,0,0,0,0,0,0,0,0,0,4.0117,4.0117,0,4.0087,4.0086,4.0086,4.0063,4.0063,4.0063,4.0062,4.0027,4.0026,4.0026,0,0,0,0,0,0,0,0,0,0,0,0,0,4.0152,4.0152,4.0117,4.0117,4.0116,4.0087,4.0086,4.0086,4.0063,4.0063,4.0063,4.0062,4.0027,4.0026,4.0026,0,0,0,0,0,0,0,0,0,0,0,0,0,4.0131,4.0151,4.0117,4.0101,4.01,4.0087,4.0086,4.0086,4.0063,4.0063,4.0062,4.0062,4.0028,4.0027,4.0025,4.0024,0,0,4.0022,4.0021,0,0,0,0,0,0,0,0,4.0132,4.0129,4.0104,4.0102,4.0101,4.0078,4.0086,4.0065,4.0063,4.0077,4.0062,4.0062,4.0044,4.0042,4.0036,4.0023,4.0021,4.0022,4.0021,4.0021,4.002,0,0,0,0,0,0,0,4.0133,4.0131,4.0105,4.0104,4.0102,4.0095,4.0091,4.0082,4.0062,4.0076,4.0074,4.0071,4.0043,4.0038,4.0035,4.0021,4.0022,4.0021,4.002,4.002,4.0004,4.0004,0,0,0,0,0,0,4.0138,4.0132,4.0106,4.0104,4.0116,4.0094,4.0091,4.0086,4.0062,4.0059,4.0071,4.007,4.004,4.0037,4.0034,4.0031,4.0021,4.002,4.0019,4.0004,4.0004,4.0005,0,0,0,0,0,0,4.0139,4.0136,4.0107,4.0118,4.0113,4.0094,4.0089,4.0085,4.008,4.0059,4.0055,4.0069,4.0039,4.0036,4.0027,4.0029,4.0019,4.0018,4.0004,4.0004,4.0004,4.0025,0,0,0,0,0,0,4.014,4.0136,4.0136,4.0118,4.0113,4.0102,4.0089,4.0085,4.0078,4.0076,4.0056,4.0053,4.0039,4.0029,4.0026,4.0028,4.0017,4.0003,4.0004,4.0004,4.0024,4.0026,4.0028,0,0,0,0,0,4.0141,4.0142,4.0136,4.0133,4.0113,4.0102,4.0099,4.0084,4.0079,4.0078,4.0065,4.0053,4.003,4.0028,4.0025,4.0026,4.0003,4.0004,4.0004,4.0023,4.0026,4.0028,0,0,0,0,0,0,4.016,4.014,4.0133,4.0128,4.0117,4.0098,4.0097,4.0087,4.0076,4.0075,4.0056,4.0052,4.0045,4.0035,4.0033,4.0024,4.0015,4.0015,4.0031,4.0033,4.0035,4.0037,4.0016,0,0,0,0,0,4.0164,4.0158,4.014,4.0138,4.0133,4.0116,4.0111,4.01,4.0088,4.0082,4.0068,4.0055,4.0045,4.0038,4.0028,4.0023,4.0018,4.0022,4.0024,4.0026,4.0025,4.0022,4.0023,4.0007,4.0007,4.0007,0,0,4.0171,4.0159,4.0156,4.0141,4.0131,4.0125,4.0112,4.0105,4.01,4.0081,4.0072,4.0062,4.0046,4.0039,4.0035,4.003,4.0029,4.0027,4.0028,4.0027,4.0023,4.0024,4.0026,4.0007,4.0007,4.0007,0,0,4.0181,4.0172,4.0169,4.016,4.0146,4.0135,4.0135,4.0117,4.011,4.0102,4.0087,4.008,4.0063,4.0052,4.0044,4.0052,4.004,4.0049,4.0058,4.0055,4.0056,4.0057,4.0059,4.006,4.0049,4.0049,4.0049,0,4.0192,4.0182,4.0168,4.0163,4.0156,4.0141,4.0137,4.0129,4.0111,4.0107,4.0102,4.0081,4.0069,4.0059,4.0061,4.0056,4.0054,4.005,4.0057,4.0058,4.0059,4.0061,4.0061,4.005,4.005,4.005,4.005,0,4.0195,4.0189,4.0188,4.0174,4.0167,4.0162,4.0147,4.0142,4.0133,4.0122,4.0114,4.0099,4.0086,4.0083,4.0073,4.0072,4.0069,4.0061,4.0052,4.0062,4.0063,4.0064,4.0052,4.0051,4.0051,4.0051,0,0,4.0215,4.0194,4.0194,4.0187,4.0171,4.0165,4.016,4.0148,4.0144,4.0133,4.0127,4.0114,4.0106,4.0098,4.0087,4.0084,4.009,4.0076,4.0075,4.0078,4.0087,4.0093,4.0094,4.0083,4.0083,4.0083,4.0088,0,4.0222,4.0212,4.02,4.0195,4.0188,4.0174,4.0169,4.0158,4.0149,4.0141,4.0129,4.012,4.0112,4.0106,4.0103,4.009,4.0091,4.009,4.0076,4.0076,4.008,4.0094,4.01,4.0105,4.0089,4.0089,4.0089,0,4.0228,4.0219,4.0213,4.0198,4.0195,4.0191,4.0179,4.0173,4.016,4.0153,4.0144,4.0133,4.0126,4.0118,4.0107,4.0106,4.01,4.0093,4.0093,4.009,4.0082,4.0091,4.0107,4.0107,4.009,4.0089,4.0089,0,4.0242,4.0228,4.0223,4.0218,4.0201,4.0198,4.0191,4.0178,4.0172,4.0161,4.0157,4.0145,4.0139,4.0129,4.0115,4.0111,4.0105,4.0097,4.0098,4.0098,4.0096,4.0096,4.011,4.0094,4.0094,4.0094,4.0094,0,4.025,4.0247,4.0229,4.0226,4.0222,4.0208,4.0204,4.0195,4.0184,4.0178,4.0165,4.0159,4.0141,4.0133,4.0121,4.0114,4.0111,4.0104,4.0101,4.0105,4.0105,4.0099,4.0098,4.0094,4.0094,4.0094,4.0094,0,4.0264,4.0253,4.0246,4.0231,4.0227,4.0224,4.0211,4.0206,4.0197,4.0189,4.0186,4.017,4.016,4.0145,4.013,4.0123,4.0116,4.0112,4.0121,4.0119,4.0121,4.012,4.013,4.0131,4.0116,4.0116,4.0116,0,4.027,4.0267,4.0252,4.0248,4.0241,4.0234,4.0228,4.0215,4.0209,4.0195,4.0192,4.0182,4.0172,4.0156,4.0142,4.0131,4.0125,4.013,4.0123,4.0127,4.0124,4.0124,4.0123,4.0131,4.0131,4.0131,4.0131,0,4.028,4.0275,4.0268,4.0259,4.0252,4.0244,4.0235,4.0232,4.0216,4.021,4.0201,4.0194,4.0179,4.0168,4.0155,4.0146,4.0135,4.0134,4.0133,4.0136,4.0142,4.0138,4.0124,4.0133,4.0133,4.0133,4.0133,4.0133,4.029,4.0287,4.0276,4.0268,4.0261,4.0253,4.0248,4.0239,4.0231,4.0219,4.0211,4.0202,4.0189,4.0171,4.0162,4.0154,4.0149,4.0149,4.0148,4.0148,4.0149,4.0144,4.0151,4.0151,4.0151,4.0151,4.0151,0,4.0299,4.0292,4.0285,4.0274,4.0268,4.0261,4.0251,4.0245,4.0238,4.0228,4.0219,4.0208,4.0198,4.0184,4.0172,4.0168,4.0163,4.0165,4.0165,4.0163,4.0154,4.0156,4.017,4.017,4.017,4.017,4.017,4.017,4.0303,4.0298,4.0292,4.0282,4.0275,4.0266,4.0261,4.0254,4.0246,4.0234,4.0226,4.0218,4.0206,4.0193,4.0183,4.0179,4.0175,4.0179,4.0173,4.0165,4.0163,4.0162,4.0163,4.0178,4.0178,4.0182,4.0182,4.0182]}]]